HARBINGER (ICEYE-X3) (44229 NORAD) Tracking and Keplerian Element Data

This shows tracking and keplerian element data for the satellite.

Feedback or suggestion? Click here.




ElementValue
Catalog44229
NameHARBINGER (ICEYE-X3)
Epoch Orbit26205
Epoch Day12.82649428
Epoch Year2024
RAAN174.1379
Inclination39.9977
Eccentricity0.001296
Argument of Perigee24.2241
Mean Anonmoly335.9184
Mean Motion15.70950306
Decay Rate0.00159228
L11 44229U 19026E 24012.82649428 .00159228 00000+0 12056-2 0 9993
L22 44229 39.9977 174.1379 0012960 24.2241 335.9184 15.70950306262056



Live tracking and technical data element details for HARBINGER (ICEYE-X3) (NORAD 44229). HARBINGER (ICEYE-X3) can be tracked NOW for your location showing map with azimuth and elevation plus other details from your city location.







IsCatalogInMostPopularTable: catalog: 44229, numindb: 332
Update: records affected: 1



GetName: 44229 HARBINGER (ICEYE-X3)

Hit Count: updated at: Thu, 22 May 2025 02:17:24 GMT